| time (UTC) | temp F | wind direction | speed MPH | gust MPH | rain 1hr in | rain 24hr in | rain mn in | humidity % | barometer mb |
| 20260507213031 | 44 | 0.0 | 0.0 | 0.00 | 0.04 | 0.04 | 97 | ||
| 20260507210121 | 45 | 0.0 | 0.0 | 0.00 | 0.07 | 0.04 | 97 | ||
| 20260507203032 | 46 | 0.0 | 0.0 | 0.00 | 0.07 | 0.04 | 96 | ||
| 20260507200122 | 46 | 0.0 | 0.0 | 0.00 | 0.07 | 0.04 | 95 | ||
| 20260507193032 | 47 | 0.0 | 0.0 | 0.00 | 0.07 | 0.04 | 94 | ||
| 20260507183033 | 51 | 138 | 0.0 | 2.0 | 0.00 | 0.16 | 0.04 | 87 | |
| 20260507180104 | 52 | 242 | 1.0 | 6.0 | 0.00 | 0.34 | 0.04 | 85 | |
| 20260507173034 | 53 | 251 | 2.0 | 6.0 | 0.00 | 0.34 | 0.04 | 84 | |
| 20260507170125 | 54 | 177 | 1.0 | 3.0 | 0.00 | 0.34 | 0.04 | 83 | |
| 20260507163035 | 53 | 290 | 2.0 | 6.0 | 0.00 | 0.34 | 0.04 | 83 | |
| 20260507160105 | 55 | 284 | 2.0 | 6.0 | 0.00 | 0.34 | 0.04 | 80 | |
| 20260507153036 | 54 | 283 | 1.0 | 6.0 | 0.00 | 0.34 | 0.04 | 83 | |
| 20260507150106 | 53 | 255 | 2.0 | 8.0 | 0.00 | 0.34 | 0.04 | 84 | |
| 20260507143037 | 51 | 215 | 2.0 | 6.0 | 0.00 | 0.34 | 0.04 | 89 | |
| 20260507140107 | 53 | 195 | 2.0 | 6.0 | 0.00 | 0.34 | 0.04 | 88 | |
| 20260507133037 | 52 | 243 | 1.0 | 6.0 | 0.01 | 0.34 | 0.04 | 88 | |
| 20260507130128 | 52 | 238 | 2.0 | 8.0 | 0.01 | 0.34 | 0.04 | 87 | |
| 20260507123038 | 52 | 184 | 2.0 | 7.0 | 0.01 | 0.33 | 0.03 | 89 | |
| 20260507120108 | 51 | 208 | 1.0 | 4.0 | 0.02 | 0.33 | 0.03 | 90 | |
| 20260507113039 | 52 | 269 | 2.0 | 9.0 | 0.01 | 0.32 | 0.02 | 88 | |
| 20260507110109 | 51 | 264 | 3.0 | 8.0 | 0.00 | 0.31 | 0.01 | 88 | |
| 20260507103040 | 52 | 284 | 3.0 | 13.0 | 0.00 | 0.31 | 0.01 | 87 | |
| 20260507100111 | 52 | 258 | 2.0 | 11.0 | 0.00 | 0.31 | 0.01 | 89 | |
| 20260507093041 | 51 | 185 | 1.0 | 8.0 | 0.01 | 0.31 | 0.01 | 91 | |
| 20260507090112 | 51 | 235 | 1.0 | 7.0 | 0.01 | 0.31 | 0.01 | 91 | |
| 20260507083102 | 51 | 213 | 2.0 | 8.0 | 0.00 | 0.30 | 0.00 | 90 | |
| 20260507080113 | 51 | 203 | 2.0 | 7.0 | 0.00 | 0.30 | 0.00 | 89 | |
| 20260507073043 | 51 | 190 | 1.0 | 6.0 | 0.00 | 0.30 | 0.00 | 88 | |
| 20260507070114 | 51 | 142 | 2.0 | 8.0 | 0.00 | 0.30 | 0.00 | 88 | |
| 20260507063044 | 50 | 183 | 2.0 | 7.0 | 0.00 | 0.30 | 0.00 | 89 | |
| 20260507060114 | 50 | 214 | 2.0 | 7.0 | 0.00 | 0.30 | 0.00 | 89 | |
| 20260507053046 | 49 | 185 | 0.0 | 4.0 | 0.00 | 0.30 | 0.00 | 92 | |
| 20260507050135 | 48 | 141 | 0.0 | 1.0 | 0.00 | 0.30 | 0.00 | 93 | |
| 20260507043045 | 47 | 175 | 1.0 | 4.0 | 0.00 | 0.30 | 0.00 | 93 | |
| 20260507040136 | 47 | 141 | 1.0 | 4.0 | 0.00 | 0.30 | 0.00 | 94 | |
| 20260507033046 | 47 | 152 | 1.0 | 6.0 | 0.00 | 0.30 | 0.00 | 93 | |
| 20260507030116 | 48 | 169 | 1.0 | 4.0 | 0.00 | 0.30 | 0.00 | 92 | |
| 20260507023046 | 49 | 154 | 1.0 | 6.0 | 0.00 | 0.30 | 0.00 | 92 | |
| 20260507020116 | 50 | 146 | 1.0 | 4.0 | 0.00 | 0.30 | 0.00 | 93 | |
| 20260507013046 | 50 | 181 | 1.0 | 4.0 | 0.00 | 0.30 | 0.00 | 92 | |
| 20260507010015 | 50 | 134 | 0.0 | 4.0 | 0.00 | 0.30 | 0.00 | 94 | |
| 20260507003047 | 50 | 154 | 0.0 | 3.0 | 0.00 | 0.30 | 0.00 | 94 | |
| 20260507000017 | 51 | 156 | 0.0 | 4.0 | 0.00 | 0.30 | 0.00 | 94 | |
| 20260506233049 | 51 | 158 | 1.0 | 3.0 | 0.00 | 0.30 | 0.00 | 94 | |
| 20260506230039 | 51 | 169 | 1.0 | 4.0 | 0.00 | 0.30 | 0.00 | 95 | |
| 20260506223109 | 52 | 166 | 0.0 | 3.0 | 0.00 | 0.30 | 0.00 | 96 | |
| 20260506220018 | 52 | 142 | 0.0 | 1.0 | 0.03 | 0.30 | 0.00 | 96 |